H1 CPF 2 NER 2022 7 17 9 198 01 glonass116 H2 0907001 9116 36111 2022 7 17 0 0 0 2022 7 20 23 45 0 900 1 1 0 0 0 1 H9 10 0 59777 0.00000 0 -14583648.412 7974553.442 -19342454.099 10 0 59777 900.00000 0 -16853347.904 7920560.288 -17424185.090 10 0 59777 1800.00000 0 -18864065.601 8027822.940 -15167259.757 10 0 59777 2700.00000 0 -20566638.422 8257422.538 -12615507.536 10 0 59777 3600.00000 0 -21922190.693 8562801.130 -9818504.114 10 0 59777 4500.00000 0 -22903591.753 8891916.014 -6830607.907 10 0 59777 5400.00000 0 -23496435.924 9189638.000 -3709901.519 10 0 59777 6300.00000 0 -23699503.946 9400291.478 -517058.903 10 0 59777 7200.00000 0 -23524686.723 9470228.044 2685839.219 10 0 59777 8100.00000 0 -22996375.072 9350323.821 5836518.032 10 0 59777 9000.00000 0 -22150341.707 8998293.756 8873725.105 10 0 59777 9900.00000 0 -21032163.244 8380723.956 11738426.137 10 0 59777 10800.00000 0 -19695249.427 7474735.141 14374956.112 10 0 59777 11700.00000 0 -18198563.307 6269205.958 16732102.997 10 0 59777 12600.00000 0 -16604128.930 4765503.731 18764102.629 10 0 59777 13500.00000 0 -14974431.818 2977691.051 20431525.525 10 0 59777 14400.00000 0 -13369821.587 932198.694 21702038.731 10 0 59777 15300.00000 0 -11846025.675 -1333022.073 22551028.382 10 0 59777 16200.00000 0 -10451877.970 -3769833.142 22962071.589 10 0 59777 17100.00000 0 -9227356.828 -6321674.263 22927249.228 10 0 59777 18000.00000 0 -8202013.707 -8925685.926 22447294.169 10 0 59777 18900.00000 0 -7393857.126 -11515102.922 21531572.656 10 0 59777 19800.00000 0 -6808737.456 -14021819.880 20197899.505 10 0 59777 20700.00000 0 -6440257.212 -16379022.852 18472190.847 10 0 59777 21600.00000 0 -6270209.456 -18523778.448 16387961.089 10 0 59777 22500.00000 0 -6269524.975 -20399473.577 13985673.553 10 0 59777 23400.00000 0 -6399687.651 -21958004.958 11311957.090 10 0 59777 24300.00000 0 -6614557.814 -23161627.806 8418703.443 10 0 59777 25200.00000 0 -6862526.306 -23984387.210 5362062.488 10 0 59777 26100.00000 0 -7088908.026 -24413072.842 2201354.593 10 0 59777 27000.00000 0 -7238473.553 -24447657.505 -1002078.930 10 0 59777 27900.00000 0 -7258011.588 -24101201.597 -4186065.107 10 0 59777 28800.00000 0 -7098813.557 -23399227.809 -7288805.065 10 0 59777 29700.00000 0 -6718974.889 -22378592.535 -10250072.761 10 0 59777 30600.00000 0 -6085415.125 -21085901.581 -13012383.326 10 0 59777 31500.00000 0 -5175530.840 -19575536.780 -15522108.095 10 0 59777 32400.00000 0 -3978410.741 -17907376.420 -17730514.780 10 0 59777 33300.00000 0 -2495560.677 -16144305.052 -19594712.654 10 0 59777 34200.00000 0 -741106.868 -14349616.922 -21078484.539 10 0 59777 35100.00000 0 1258532.552 -12584421.577 -22152989.752 10 0 59777 36000.00000 0 3465495.493 -10905159.780 -22797324.601 10 0 59777 36900.00000 0 5831809.354 -9361333.340 -22998929.785 10 0 59777 37800.00000 0 8301155.810 -7993543.253 -22753836.898 10 0 59777 38700.00000 0 10810994.826 -6831917.671 -22066749.240 10 0 59777 39600.00000 0 13294960.565 -5894994.963 -20950955.116 10 0 59777 40500.00000 0 15685430.510 -5189108.054 -19428074.906 10 0 59777 41400.00000 0 17916161.636 -4708295.342 -17527646.281 10 0 59777 42300.00000 0 19924884.216 -4434741.447 -15286555.003 10 0 59777 43200.00000 0 21655745.468 -4339728.749 -12748321.780 10 0 59777 44100.00000 0 23061501.089 -4385059.153 -9962258.476 10 0 59777 45000.00000 0 24105362.947 -4524885.578 -6982509.818 10 0 59777 45900.00000 0 24762425.496 -4707875.179 -3866999.108 10 0 59777 46800.00000 0 25020610.992 -4879612.100 -676298.598 10 0 59777 47700.00000 0 24881093.778 -4985137.263 2527553.017 10 0 59777 48600.00000 0 24358185.955 -4971516.687 5682262.404 10 0 59777 49500.00000 0 23478689.490 -4790328.590 8726498.391 10 0 59777 50400.00000 0 22280742.445 -4399962.936 11601089.291 10 0 59777 51300.00000 0 20812208.436 -3767635.127 14250176.789 10 0 59777 52200.00000 0 19128677.567 -2871027.726 16622303.529 10 0 59777 53100.00000 0 17291163.488 -1699490.062 18671412.905 10 0 59777 54000.00000 0 15363593.661 -254744.291 20357741.702 10 0 59777 54900.00000 0 13410198.328 1448932.561 21648588.572 10 0 59777 55800.00000 0 11492907.568 3385058.917 22518943.858 10 0 59777 56700.00000 0 9668865.067 5515817.383 22951969.230 10 0 59777 57600.00000 0 7988161.879 7793406.356 22939318.574 10 0 59777 58500.00000 0 6491884.048 10161818.731 22481294.485 10 0 59777 59400.00000 0 5210554.483 12558974.366 21586837.960 10 0 59777 60300.00000 0 4163032.903 14919118.300 20273351.772 10 0 59777 61200.00000 0 3355918.500 17175385.559 18566361.130 10 0 59777 62100.00000 0 2783478.963 19262426.591 16499018.133 10 0 59777 63000.00000 0 2428107.532 21118984.705 14111459.359 10 0 59777 63900.00000 0 2261287.833 22690318.654 11450028.741 10 0 59777 64800.00000 0 2245024.940 23930369.905 8566380.401 10 0 59777 65700.00000 0 2333681.662 24803584.528 5516478.438 10 0 59777 66600.00000 0 2476142.036 25286313.822 2359512.892 10 0 59777 67500.00000 0 2618210.208 25367735.351 -843247.318 10 0 59777 68400.00000 0 2705142.920 25050255.979 -4029642.240 10 0 59777 69300.00000 0 2684208.169 24349380.029 -7137826.342 10 0 59777 70200.00000 0 2507161.445 23293048.376 -10107468.144 10 0 59777 71100.00000 0 2132534.360 21920475.978 -12880920.557 10 0 59777 72000.00000 0 1527638.322 20280536.523 -15404339.030 10 0 59777 72900.00000 0 670197.962 18429761.965 -17628725.873 10 0 59777 73800.00000 0 -450455.476 16430040.493 -19510880.588 10 0 59777 74700.00000 0 -1832682.053 14346109.114 -21014237.853 10 0 59777 75600.00000 0 -3462353.153 12242945.300 -22109577.190 10 0 59777 76500.00000 0 -5313202.526 10183166.267 -22775590.812 10 0 59777 77400.00000 0 -7347695.060 8224544.068 -22999298.812 10 0 59777 78300.00000 0 -9518378.471 6417739.593 -22776303.790 10 0 59777 79200.00000 0 -11769662.893 4804349.414 -22110879.939 10 0 59777 80100.00000 0 -14039955.374 3415346.421 -21015894.628 10 0 59777 81000.00000 0 -16264061.387 2269978.661 -19512563.648 10 0 59777 81900.00000 0 -18375754.125 1375171.751 -17630044.298 10 0 59777 82800.00000 0 -20310404.892 725459.222 -15404873.632 10 0 59777 83700.00000 0 -22007565.128 303443.033 -12880262.175 10 0 59777 84600.00000 0 -23413392.245 80764.144 -10105256.261 10 0 59777 85500.00000 0 -24482817.539 19541.606 -7133785.018 10 0 59778 0.00000 0 -25181365.073 74218.640 -4023610.656 10 0 59778 900.00000 0 -25486545.178 193736.887 -835200.928 10 0 59778 1800.00000 0 -25388762.878 323945.911 2369449.624 10 0 59778 2700.00000 0 -24891704.112 410145.015 5528031.705 10 0 59778 3600.00000 0 -24012182.414 399648.681 8579138.133 10 0 59778 4500.00000 0 -22779453.037 244265.960 11463462.680 10 0 59778 5400.00000 0 -21234023.565 -97412.145 14124956.668 10 0 59778 6300.00000 0 -19426011.292 -658014.990 16511920.345 10 0 59778 7200.00000 0 -17413116.803 -1459769.552 18578007.500 10 0 59778 8100.00000 0 -15258299.043 -2513321.851 20283123.836 10 0 59778 9000.00000 0 -13027249.461 -3817052.895 21594201.979 10 0 59778 9900.00000 0 -10785770.962 -5356918.522 22485838.484 10 0 59778 10800.00000 0 -8597170.879 -7106820.494 22940781.192 10 0 59778 11700.00000 0 -6519776.245 -9029493.949 22950258.171 10 0 59778 12600.00000 0 -4604674.209 -11077874.720 22514142.491 10 0 59778 13500.00000 0 -2893770.721 -13196890.096 21640950.221 10 0 59778 14400.00000 0 -1418247.111 -15325599.042 20347671.998 10 0 59778 15300.00000 0 -197477.613 -17399593.237 18659441.612 10 0 59778 16200.00000 0 761548.499 -19353559.548 16609047.975 10 0 59778 17100.00000 0 1464277.430 -21123897.671 14236299.660 10 0 59778 18000.00000 0 1928113.279 -22651284.197 11587254.065 10 0 59778 18900.00000 0 2181433.615 -23883076.488 8713325.744 10 0 59778 19800.00000 0 2262140.655 -24775456.178 5670290.804 10 0 59778 20700.00000 0 2215809.890 -25295222.781 2517206.475 10 0 59778 21600.00000 0 2093514.952 -25421162.375 -684733.364 10 0 59778 22500.00000 0 1949421.123 -25144933.940 -3873384.582 10 0 59778 23400.00000 0 1838249.641 -24471436.130 -6986857.960 10 0 59778 24300.00000 0 1812720.444 -23418638.899 -9964719.637 10 0 59778 25200.00000 0 1921081.903 -22016886.715 -12749163.400 10 0 59778 26100.00000 0 2204832.436 -20307702.449 -15286131.919 10 0 59778 27000.00000 0 2696730.807 -18342141.608 -17526365.159 10 0 59778 27900.00000 0 3419179.787 -16178765.490 -19426355.728 10 0 59778 28800.00000 0 4383052.063 -13881317.718 -20949192.771 10 0 59778 29700.00000 0 5587008.825 -11516200.635 -22065278.290 10 0 59778 30600.00000 0 7017340.833 -9149856.333 -22752902.250 10 0 59778 31500.00000 0 8648339.838 -6846161.018 -22998665.540 10 0 59778 32400.00000 0 10443186.193 -4663940.582 -22797742.698 10 0 59778 33300.00000 0 12355316.861 -2654710.205 -22153979.286 10 0 59778 34200.00000 0 14330217.877 -860731.515 -21079821.789 10 0 59778 35100.00000 0 16307567.549 686532.480 -19596081.035 10 0 59778 36000.00000 0 18223641.762 1967500.958 -17731533.162 10 0 59778 36900.00000 0 20013881.524 2975052.782 -15522365.302 10 0 59778 37800.00000 0 21615515.719 3714574.575 -13011476.146 10 0 59778 38700.00000 0 22970129.455 4203478.173 -10247644.410 10 0 59778 39600.00000 0 24026070.114 4470208.561 -7284581.097 10 0 59778 40500.00000 0 24740589.893 4552784.979 -4179883.853 10 0 59778 41400.00000 0 25081634.352 4496937.737 -993913.837 10 0 59778 42300.00000 0 25029201.259 4353920.400 2211382.533 10 0 59778 43200.00000 0 24576212.125 4178090.979 5373683.513 10 0 59778 44100.00000 0 23728859.378 4024365.562 8431509.389 10 0 59778 45000.00000 0 22506414.327 3945653.233 11325422.747 10 0 59778 45900.00000 0 20940503.934 3990381.863 13999187.681 10 0 59778 46800.00000 0 19073886.805 4200220.374 16400864.912 10 0 59778 47700.00000 0 16958779.963 4608094.519 18483821.177 10 0 59778 48600.00000 0 14654806.684 5236580.655 20207633.317 10 0 59778 49500.00000 0 12226651.365 6096745.796 21538869.790 10 0 59778 50400.00000 0 9741519.479 7187483.229 22451734.853 10 0 59778 51300.00000 0 7266508.348 8495372.090 22928563.593 10 0 59778 52200.00000 0 4865997.848 9995067.252 22960158.903 10 0 59778 53100.00000 0 2599169.068 11650203.611 22545964.497 10 0 59778 54000.00000 0 517753.158 13414777.465 21694071.198 10 0 59778 54900.00000 0 -1335897.131 15234947.809 20421056.701 10 0 59778 55800.00000 0 -2930334.225 17051182.794 18751662.104 10 0 59778 56700.00000 0 -4246078.713 18800662.293 16718311.433 10 0 59778 57600.00000 0 -5276175.690 20419836.709 14360483.208 10 0 59778 58500.00000 0 -6026222.647 21847035.528 11723945.958 10 0 59778 59400.00000 0 -6513869.117 23025016.831 8859872.128 10 0 59778 60300.00000 0 -6767810.355 23903351.329 5823847.123 10 0 59778 61200.00000 0 -6826318.346 24440541.052 2674792.576 10 0 59778 62100.00000 0 -6735372.961 24605783.863 -526175.534 10 0 59778 63000.00000 0 -6546472.768 24380309.543 -3716931.759 10 0 59778 63900.00000 0 -6314218.518 23758231.145 -6835545.980 10 0 59778 64800.00000 0 -6093771.916 22746875.515 -9821484.629 10 0 59778 65700.00000 0 -5938297.444 21366578.650 -12616784.918 10 0 59778 66600.00000 0 -5896495.763 19649953.879 -15167179.079 10 0 59778 67500.00000 0 -6010333.324 17640663.018 -17423146.819 10 0 59778 68400.00000 0 -6313064.472 15391741.460 -19340875.730 10 0 59778 69300.00000 0 -6827630.035 12963546.471 -20883111.061 10 0 59778 70200.00000 0 -7565500.514 10421413.759 -22019878.689 10 0 59778 71100.00000 0 -8526013.397 7833119.291 -22729067.499 10 0 59778 72000.00000 0 -9696233.398 5266251.432 -22996860.075 10 0 59778 72900.00000 0 -11051342.560 2785602.034 -22818003.493 10 0 59778 73800.00000 0 -12555545.064 450684.252 -22195914.943 10 0 59778 74700.00000 0 -14163449.939 -1686520.321 -21142619.902 10 0 59778 75600.00000 0 -15821874.891 -3583492.226 -19678523.703 10 0 59778 76500.00000 0 -17471996.657 -5208702.764 -17832020.397 10 0 59778 77400.00000 0 -19051758.511 -6542677.593 -15638945.896 10 0 59778 78300.00000 0 -20498434.518 -7578551.712 -13141885.433 10 0 59778 79200.00000 0 -21751243.151 -8322093.379 -10389348.215 10 0 59778 80100.00000 0 -22753900.426 -8791196.826 -7434825.034 10 0 59778 81000.00000 0 -23457004.936 -9014866.012 -4335746.986 10 0 59778 81900.00000 0 -23820153.931 -9031733.251 -1152365.682 10 0 59778 82800.00000 0 -23813700.722 -8888176.183 2053422.846 10 0 59778 83700.00000 0 -23420078.754 -8636113.810 5219287.058 10 0 59778 84600.00000 0 -22634635.936 -8330575.861 8283677.475 10 0 59778 85500.00000 0 -21465943.596 -8027149.393 11187028.332 10 0 59779 0.00000 0 -19935566.822 -7779411.732 13872919.127 10 0 59779 900.00000 0 -18077304.690 -7636459.084 16289174.336 10 0 59779 1800.00000 0 -15935934.303 -7640636.356 18388876.049 10 0 59779 2700.00000 0 -13565508.464 -7825564.203 20131274.674 10 0 59779 3600.00000 0 -11027280.098 -8214547.306 21482576.616 10 0 59779 4500.00000 0 -8387339.284 -8819431.079 22416595.577 10 0 59779 5400.00000 0 -5714061.283 -9639955.172 22915255.227 10 0 59779 6300.00000 0 -3075471.371 -10663631.112 22968934.211 10 0 59779 7200.00000 0 -536635.515 -11866149.416 22576647.407 10 0 59779 8100.00000 0 1842815.528 -13212299.369 21746060.530 10 0 59779 9000.00000 0 4010926.899 -14657363.274 20493338.105 10 0 59779 9900.00000 0 5925333.107 -16148927.134 18842827.966 10 0 59779 10800.00000 0 7554766.113 -17629032.415 16826588.334 10 0 59779 11700.00000 0 8880096.640 -19036579.226 14483766.411 10 0 59779 12600.00000 0 9894866.682 -20309880.604 11859840.254 10 0 59779 13500.00000 0 10605292.371 -21389261.192 9005738.235 10 0 59779 14400.00000 0 11029738.432 -22219591.515 5976852.805 10 0 59779 15300.00000 0 11197687.402 -22752651.552 2831967.452 10 0 59779 16200.00000 0 11148247.986 -22949224.207 -367882.478 10 0 59779 17100.00000 0 10928266.253 -22780830.560 -3560593.115 10 0 59779 18000.00000 0 10590119.996 -22231033.564 -6684196.438 10 0 59779 18900.00000 0 10189289.862 -21296254.861 -9678062.209 10 0 59779 19800.00000 0 9781810.310 -19986069.855 -12484074.081 10 0 59779 20700.00000 0 9421708.335 -18322967.833 -15047756.795 10 0 59779 21600.00000 0 9158538.481 -16341586.494 -17319332.657 10 0 59779 22500.00000 0 9035118.443 -14087452.082 -19254686.888 10 0 59779 23400.00000 0 9085561.099 -11615277.009 -20816223.229 10 0 59779 24300.00000 0 9333686.247 -8986885.176 -21973593.482 10 0 59779 25200.00000 0 9791879.406 -6268850.467 -22704287.098 10 0 59779 26100.00000 0 10460446.290 -3529946.011 -22994069.554 10 0 59779 27000.00000 0 11327490.799 -838509.392 -22837261.209 10 0 59779 27900.00000 0 12369322.496 1740167.516 -22236851.167 10 0 59779 28800.00000 0 13551377.366 4146316.316 -21204443.741 10 0 59779 29700.00000 0 14829614.120 6327935.266 -19760038.211 10 0 59779 30600.00000 0 16152328.303 8242705.262 -17931645.566 10 0 59779 31500.00000 0 17462308.756 9859499.455 -15754749.137 10 0 59779 32400.00000 0 18699246.329 11159424.271 -13271618.947 10 0 59779 33300.00000 0 19802293.888 12136349.075 -10530492.560 10 0 59779 34200.00000 0 20712669.848 12796902.998 -7584638.059 10 0 59779 35100.00000 0 21376195.370 13159939.978 -4491317.179 10 0 59779 36000.00000 0 21745657.774 13255495.445 -1310668.908 10 0 59779 36900.00000 0 21782899.878 13123279.566 1895464.325 10 0 59779 37800.00000 0 21460546.366 12810771.764 5064744.468 10 0 59779 38700.00000 0 20763293.593 12370998.045 8135555.503 10 0 59779 39600.00000 0 19688707.731 11860086.191 11048206.419 10 0 59779 40500.00000 0 18247496.972 11334703.195 13746095.465 10 0 59779 41400.00000 0 16463245.779 10849484.153 16176812.559 10 0 59779 42300.00000 0 14371621.978 10454561.972 18293158.023 10 0 59779 43200.00000 0 12019089.582 10193302.734 20054057.901 10 0 59779 44100.00000 0 9461180.912 10100342.563 21425358.311 10 0 59779 45000.00000 0 6760399.980 10200008.827 22380483.815 10 0 59779 45900.00000 0 3983844.177 10505192.153 22900947.721 10 0 59779 46800.00000 0 1200642.778 11016716.570 22976705.054 10 0 59779 47700.00000 0 -1520681.754 11723234.116 22606342.043 10 0 59779 48600.00000 0 -4114820.883 12601648.267 21797098.989 10 0 59779 49500.00000 0 -6522148.245 13618048.404 20564726.449 10 0 59779 50400.00000 0 -8690947.545 14729116.220 18933177.707 10 0 59779 51300.00000 0 -10579308.798 15883945.244 16934143.453 10 0 59779 52200.00000 0 -12156615.367 17026197.415 14606437.469 10 0 59779 53100.00000 0 -13404561.090 18096506.436 11995244.948 10 0 59779 54000.00000 0 -14317656.463 19035027.236 9151247.617 10 0 59779 54900.00000 0 -14903203.958 19784024.582 6129642.270 10 0 59779 55800.00000 0 -15180744.644 20290392.017 2989071.518 10 0 59779 56700.00000 0 -15181000.436 20507995.082 -209512.695 10 0 59779 57600.00000 0 -14944357.336 20399739.959 -3404030.820 10 0 59779 58500.00000 0 -14518954.254 19939279.966 -6532479.591 10 0 59779 59400.00000 0 -13958458.691 19112287.736 -9534134.698 10 0 59779 60300.00000 0 -13319623.447 17917238.678 -12350728.714 10 0 59779 61200.00000 0 -12659727.785 16365671.918 -14927581.195 10 0 59779 62100.00000 0 -12034011.325 14481916.976 -17214659.137 10 0 59779 63000.00000 0 -11493209.044 12302296.525 -19167547.259 10 0 59779 63900.00000 0 -11081291.402 9873837.617 -20748309.408 10 0 59779 64800.00000 0 -10833504.909 7252544.038 -21926224.659 10 0 59779 65700.00000 0 -10774795.787 4501300.722 -22678384.088 10 0 59779 66600.00000 0 -10918683.249 1687496.485 -22990136.839 10 0 59779 67500.00000 0 -11266630.128 -1119537.085 -22855376.995 10 0 59779 68400.00000 0 -11807937.733 -3851165.134 -22276665.665 10 0 59779 69300.00000 0 -12520169.874 -6442058.588 -21265185.724 10 0 59779 70200.00000 0 -13370088.862 -8832665.135 -19840529.722 10 0 59779 71100.00000 0 -14315064.748 -10971440.185 -18030324.544 10 0 59779 72000.00000 0 -15304899.092 -12816745.492 -15869699.539 10 0 59779 72900.00000 0 -16283986.965 -14338336.960 -13400607.826 10 0 59779 73800.00000 0 -17193726.390 -15518380.152 -10671013.395 10 0 59779 74700.00000 0 -17975073.678 -16351951.560 -7733959.496 10 0 59779 75600.00000 0 -18571136.664 -16847005.380 -4646536.262 10 0 59779 76500.00000 0 -18929695.912 -17023807.969 -1468767.713 10 0 59779 77400.00000 0 -19005546.769 -16913864.625 1737559.763 10 0 59779 78300.00000 0 -18762562.539 -16558384.927 4910104.119 10 0 59779 79200.00000 0 -18175390.764 -16006352.389 7987185.394 10 0 59779 80100.00000 0 -17230710.137 -15312280.982 10908989.974 10 0 59779 81000.00000 0 -15927994.205 -14533754.291 13618737.290 10 0 59779 81900.00000 0 -14279748.925 -13728852.126 16063785.784 10 0 59779 82800.00000 0 -12311213.443 -12953573.957 18196656.232 10 0 59779 83700.00000 0 -10059536.111 -12259368.392 19975952.588 10 0 59779 84600.00000 0 -7572459.683 -11690873.107 21367162.671 10 0 59779 85500.00000 0 -4906570.276 -11283960.439 22343323.579 10 0 59780 0.00000 0 -2125182.860 -11064170.700 22885539.523 10 0 59780 900.00000 0 704050.743 -11045598.664 22983342.949 10 0 59780 1800.00000 0 3511708.697 -11230279.820 22634891.930 10 0 59780 2700.00000 0 6229239.961 -11608101.344 21847001.570 10 0 59780 3600.00000 0 8791566.611 -12157241.456 20635008.339 10 0 59780 4500.00000 0 11139542.031 -12845118.308 19022470.516 10 0 59780 5400.00000 0 13222163.740 -13629808.386 17040710.481 10 0 59780 6300.00000 0 14998450.067 -14461874.829 14728207.471 10 0 59780 7200.00000 0 16438903.608 -15286528.832 12129852.313 10 0 59780 8100.00000 0 17526501.719 -16046033.313 9296078.214 10 0 59780 9000.00000 0 18257173.804 -16682247.768 6281884.052 10 0 59780 9900.00000 0 18639746.457 -17139207.123 3145768.953 10 0 59780 10800.00000 0 18695359.785 -17365625.844 -51401.418 10 0 59780 11700.00000 0 18456380.272 -17317221.491 -3247574.898 10 0 59780 12600.00000 0 17964856.672 -16958759.423 -6380716.190 10 0 59780 13500.00000 0 17270584.527 -16265731.917 -9390010.124 10 0 59780 14400.00000 0 16428861.280 -15225600.187 -12217041.303 10 0 59780 15300.00000 0 15498026.961 -13838546.279 -14806927.131 10 0 59780 16200.00000 0 14536894.201 -12117702.048 -17109382.147 10 0 59780 17100.00000 0 13602175.997 -10088844.515 -19079693.176 10 0 59780 18000.00000 0 12746019.598 -7789569.295 -20679586.499 10 0 59780 18900.00000 0 12013750.143 -5267975.235 -21877970.443 10 0 59780 19800.00000 0 11441918.898 -2580913.857 -22651539.300 10 0 59780 20700.00000 0 11056738.071 208124.612 -22985227.025 10 0 59780 21600.00000 0 10872967.952 3031401.924 -22872502.109 10 0 59780 22500.00000 0 10893303.157 5819500.942 -22315497.880 10 0 59780 23400.00000 0 11108283.940 8503967.368 -21324975.519 10 0 59780 24300.00000 0 11496736.478 11019915.242 -19920120.139 10 0 59780 25200.00000 0 12026723.923 13308488.594 -18128173.392 10 0 59780 26100.00000 0 12656968.464 15319077.415 -15983909.097 10 0 59780 27000.00000 0 13338684.755 17011196.124 -13528961.529 10 0 59780 27900.00000 0 14017747.551 18355946.652 -10811018.783 10 0 59780 28800.00000 0 14637102.036 19337005.348 -7882896.624 10 0 59780 29700.00000 0 15139314.829 19951092.909 -4801510.625 10 0 59780 30600.00000 0 15469157.411 20207908.181 -1626766.659 10 0 59780 31500.00000 0 15576112.075 20129529.263 1579608.231 10 0 59780 32400.00000 0 15416693.658 19749307.947 4755271.333 10 0 59780 33300.00000 0 14956487.920 19110304.960 7838481.997 10 0 59780 34200.00000 0 14171819.504 18263332.922 10769307.086 10 0 59780 35100.00000 0 13050978.083 17264690.559 13490790.068 10 0 59780 36000.00000 0 11594950.066 16173684.587 15950060.476 10 0 59780 36900.00000 0 9817624.251 15050044.518 18099361.807 10 0 59780 37800.00000 0 7745462.032 13951339.860 19896977.860 10 0 59780 38700.00000 0 5416645.254 12930508.712 21308039.762 10 0 59780 39600.00000 0 2879736.823 12033601.748 22305198.385 10 0 59780 40500.00000 0 191909.321 11297836.140 22869149.774 10 0 59780 41400.00000 0 -2583185.188 10750040.647 22989004.040 10 0 59780 42300.00000 0 -5377816.154 10405556.509 22662491.235 10 0 59780 43200.00000 0 -8122747.318 10267639.491 21896000.780 10 0 59780 44100.00000 0 -10749875.281 10327387.424 20704454.073 10 0 59780 45000.00000 0 -13194825.111 10564195.603 19111012.922 10 0 59780 45900.00000 0 -15399396.184 10946720.336 17146629.471 10 0 59780 46800.00000 0 -17313757.609 11434309.735 14849446.102 10 0 59780 47700.00000 0 -18898302.820 11978841.277 12264056.677 10 0 59780 48600.00000 0 -20125087.070 12526888.644 9440643.084 10 0 59780 49500.00000 0 -20978788.845 13022126.419 6434003.403 10 0 59780 50400.00000 0 -21457155.798 13407871.181 3302490.381 10 0 59780 51300.00000 0 -21570917.444 13629651.638 106880.556 10 0 59780 52200.00000 0 -21343168.970 13637699.095 -3090804.066 10 0 59780 53100.00000 0 -20808252.738 13389252.781 -6228498.811 10 0 59780 54000.00000 0 -20010185.048 12850582.256 -9245300.177 10 0 59780 54900.00000 0 -19000694.759 11998640.901 -12082647.243 10 0 59780 55800.00000 0 -17836956.559 10822279.946 -14685457.484 10 0 59780 56700.00000 0 -16579114.465 9322970.899 -17003194.988 10 0 59780 57600.00000 0 -15287699.863 7515004.910 -18990850.448 10 0 59780 58500.00000 0 -14021052.501 5425159.408 -20609814.016 10 0 59780 59400.00000 0 -12832852.692 3091844.581 -21828624.370 10 0 59780 60300.00000 0 -11769868.093 563763.941 -22623579.755 10 0 59780 61200.00000 0 -10870009.352 -2101856.570 -22979199.302 10 0 59780 62100.00000 0 -10160775.923 -4841398.547 -22888525.905 10 0 59780 63000.00000 0 -9658156.990 -7587252.818 -22353264.729 10 0 59780 63900.00000 0 -9366033.417 -10270394.068 -21383754.505 10 0 59780 64800.00000 0 -9276105.677 -12823022.358 -19998771.818 10 0 59780 65700.00000 0 -9368350.676 -15181162.499 -18225171.653 10 0 59780 66600.00000 0 -9611988.247 -17287113.615 -16097370.610 10 0 59780 67500.00000 0 -9966916.528 -19091647.348 -13656682.200 10 0 59780 68400.00000 0 -10385555.647 -20555863.298 -10950516.562 10 0 59780 69300.00000 0 -10815021.700 -21652624.402 -8031459.822 10 0 59780 70200.00000 0 -11199538.841 -22367512.414 -4956250.808 10 0 59780 71100.00000 0 -11482986.976 -22699263.769 -1784675.059 10 0 59780 72000.00000 0 -11611476.622 -22659667.857 1421601.917 10 0 59780 72900.00000 0 -11535841.091 -22272932.588 4600238.931 10 0 59780 73800.00000 0 -11213939.618 -21574544.579 7689436.851 10 0 59780 74700.00000 0 -10612672.994 -20609672.772 10629145.244 10 0 59780 75600.00000 0 -9709625.503 -19431183.548 13362233.825 10 0 59780 76500.00000 0 -8494262.827 -18097351.792 15835605.403 10 0 59780 77400.00000 0 -6968634.550 -16669365.007 18001228.284 10 0 59780 78300.00000 0 -5147550.819 -15208726.067 19817068.061 10 0 59780 79200.00000 0 -3058224.911 -13774664.091 21247900.900 10 0 59780 80100.00000 0 -739396.001 -12421662.256 22265992.938 10 0 59780 81000.00000 0 1760031.955 -11197206.019 22851633.212 10 0 59780 81900.00000 0 4382779.172 -10139845.607 22993510.498 10 0 59780 82800.00000 0 7065332.954 -9277653.237 22688927.342 10 0 59780 83700.00000 0 9740356.253 -8627138.748 21943847.776 10 0 59780 84600.00000 0 12339262.539 -8192668.026 20772778.117 10 0 59780 85500.00000 0 14794850.783 -7966407.624 19198483.404 99